Pagina principale
METAR-TAF:

METAR-TAF

Aeroporti :

Calvinia, Sudafrica

latitudine: 31-28-56S, longitudine: 19-45-43E, altezza: 977 m

Osservazione

Il bollettino è stato emesso 12 ore e 36 minuti fa, alle 09:28 UTC
Vento 9 kt da est/nord-est
Temperature 25°C
Umidità 10%
Pressione 1023 hPa
Visibilità 10 km o più
nessuna nube inferiore a 1500 m e nessun cumulonembo

METAR: FACV 210928Z 06009KT CAVOK 25/M09 Q1023

Ora: 00:04 (22:04 UTC)


TAF: mancante

Osservazioni e previsioni meteorologiche di più di 4000 aeroporti (messaggi METAR e TAF).

Le stazioni disponibili sono rappresentate dai dischi gialli e rossi sulla carta.

Puntare il mouse per vedere il nome della stazione.

Clicca sopra per visualizzare le osservazioni e previsioni meteorologiche.

Per cambiare la mappa : fare clic sui pulsanti verdi con una croce nera per ingrandire, il pulsante verde con un trattino per diminuire, o sulla freccia verde per le mappe adiacenti.


METAR-TAF: